Preview of NWS' New Version of Forecast
This preview is not operational and should not be used for support decisions.

Regional Weather Roundup (RWR)

Issued by National Weather Service (NWS)

                            
000
ASUS46 KPQR 221410
RWROR 

OREGON REGIONAL WEATHER ROUNDUP
NATIONAL WEATHER SERVICE PORTLAND OR
600 AM PST FRI FEB 22 2019

NOTE: "FAIR" INDICATES FEW OR NO CLOUDS BELOW 12,000 FEET WITH
NO SIGNIFICANT WEATHER AND/OR OBSTRUCTIONS TO VISIBILITY.

ORZ001>013-221500-
NORTHWEST OREGON

  
CITY           SKY/WX    TMP DP  RH WIND       PRES   REMARKS
ASTORIA        LGT RAIN  34  34 100 CALM      30.07F                  
TILLAMOOK      CLOUDY    32  32 100 CALM      30.14S                  
NEWPORT        PTCLDY    32  30  93 E6        30.15F                  
PORTLAND       CLOUDY    33  26  75 SE9       30.16R                  
VANCOUVER WA   CLOUDY    33  26  75 SE8       30.15S                  
SCAPPOOSE      CLOUDY    32  29  88 CALM      30.15S                  
HILLSBORO      CLOUDY    29  27  92 CALM      30.14S                  
AURORA         CLOUDY    30  28  92 CALM      30.16R                  
MCMINNVILLE    CLOUDY    29  28  96 CALM      30.15R                  
SALEM          MOCLDY    32  27  81 S6        30.14R                  
CORVALLIS      PTCLDY    28  27  96 N3        30.17R                  
EUGENE         MOCLDY    28  26  92 SW7       30.16R                  
$$

ORZ021-028-221500-
SOUTHWEST OREGON

  
CITY           SKY/WX    TMP DP  RH WIND       PRES   REMARKS
NORTH BEND     PTCLDY    32  30  92 SE8       30.19R                  
BROOKINGS      MOCLDY    35  28  75 CALM      30.12R                  
ROSEBURG       FOG       29  28  96 CALM      30.17S VSB 1/2          
SEXTON SUMMIT  CLEAR     22  20  92 SE9       29.99R                  
GRANTS PASS    FOG       25  25 100 CALM      30.17  VSB 1/2          
MEDFORD        CLEAR     28  23  81 CALM      30.14R                  
$$

ORZ014>016-041-221500-
COLUMBIA GORGE

  
CITY           SKY/WX    TMP DP  RH WIND       PRES   REMARKS
TROUTDALE      CLOUDY    31  27  85 CALM      30.16S                  
HOOD RIVER     MOCLDY    23  21  93 CALM      30.15R                  
THE DALLES     MOCLDY    22  17  81 CALM      30.17S                  
$$

ORZ029>031-041-044-049-050-061>064-502-503-505>511-221500-
EASTERN OREGON

  
CITY           SKY/WX    TMP DP  RH WIND       PRES   REMARKS
MADRAS         NOT AVBL                                               
REDMOND        CLEAR     16  12  84 E7        30.04R                  
BEND           CLEAR     12   9  85 SE3       30.03R                  
PRINEVILLE     PTCLDY    14  10  85 CALM      30.04                   
KLAMATH FALLS  CLEAR     13   8  81 NE3       30.03R                  
LAKEVIEW       PTCLDY    -1  -4  87 N8        30.00R                  
HERMISTON      PTCLDY    20  16  84 NE3       30.12S                  
PENDLETON      PTCLDY    20  15  81 SE5       30.08S                  
JOHN DAY       FLURRIES  20  15  82 CALM      30.03                   
MEACHAM        PTCLDY    -3  -8  79 CALM      29.98S                  
LA GRANDE      MOCLDY     9   6  88 CALM      30.07S                  
BAKER CITY     MOCLDY    14  10  84 CALM      30.02R                  
BURNS          PTCLDY     9   5  84 W3        30.01R                  
ROME             N/A      7   3  84 SE6       29.99R                  
ONTARIO        CLEAR     20  14  77 W6        30.10R                  
$$